Location: Waco, TX
(31.5480°N, 97.1670°W)
Time: 09:21:15
(UTC-05:00)

ISS - Pass Details

Date: 26 May 2017
Orbit: 402 x 409 km, 51.6° (Epoch: 25 May)

Event Time Altitude Azimuth Distance (km) Brightness Sun altitude
Rises 05:49:21 0° 299° (WNW) 2,316 -0.3 -7.8°
Reaches altitude 10° 05:51:46 10° 281° (WNW) 1,452 -1.5 -7.3°
Maximum altitude 05:54:14 20° 232° (SW) 998 -2.5 -6.9°
Drops below altitude 10° 05:56:40 10° 183° (S) 1,443 -1.3 -6.4°
Sets 05:59:05 0° 165° (SSE) 2,296 -0.2 -6.0°
